Vertical_Velocity
1 1 -0 -0 -2 -1 0 -0 0 0 -0 -0 0 -0 -0 -1 -1 -1 -0 -1 -2 -3 -2 -1 -3 -2 -1 -0 1 -2 -2 15 1 -2 -2 -4 -2 -1 -1 -0 0 -0 -2 -1 1
-0 1 1 -0 -0 -1 -2 -1 -0 -0 -1 -1 -1 -1 0 -1 -1 -1 -1 -1 -1 -1 -2 -3 -2 -3 -3 -3 -0 0 -7 -5 1 1 -1 1 1 1 -1 -1 0 -0 0 -2 -2
-1 0 1 0 -0 1 -1 -1 -1 -1 -1 -1 -0 -0 -0 -0 -1 -1 -1 -1 -0 -1 0 -1 -3 -1 -9 1 -2 -6 3 -0 1 -1 -1 -1 -2 -2 2 1 -1 -1 -1 -0 -1
-1 -1 1 1 0 -1 -0 -1 -1 -1 -1 -0 -1 -0 0 -0 -2 -1 -1 -1 -1 -2 -1 -1 -2 -7 -4 -3 0 -3 1 -0 -1 0 -0 0 0 -1 -1 -1 -0 0 -1 -1 1
-0 -1 -1 0 1 0 0 -1 -0 -1 -1 -0 -1 -0 -0 -0 -0 -1 0 -0 -1 -2 -3 -3 -6 -6 -6 -2 -3 -6 1 0 0 -1 -2 -1 -2 -2 -2 -1 -1 0 -0 -1 -1
1 -0 -1 -1 1 0 -0 0 0 0 -0 -1 -0 -1 -0 0 0 -1 -1 0 1 -0 -1 -1 -2 -2 -5 -4 12 -1 -1 -1 -2 0 0 -0 0 -0 -1 -1 -2 -2 -0 -0 -1
-1 0 -0 -1 -1 1 -0 -0 0 -0 0 0 -2 -1 -0 0 -1 -1 -2 -2 -1 -1 -2 -2 -2 -1 -1 -4 -3 -1 -4 -3 -4 -2 1 -2 -0 -1 0 -0 -1 -0 -1 0 1
-2 0 -0 -1 -1 -1 1 -0 0 0 -1 0 -1 -2 -0 -0 -1 -1 -1 0 -2 -2 -1 -2 -2 -2 -3 -2 -4 -2 18 4 6 -2 0 -3 9 -3 1 0 -1 -2 -2 -0 -0
-1 -1 0 0 -1 -1 -1 0 -1 0 0 -0 -1 -1 -1 -1 -0 -0 -0 -1 -1 -1 -1 -1 -0 -2 -1 20 13 2 2 -3 -1 0 -6 -2 -5 -7 -1 -0 1 1 -1 0 -2
-1 -1 -1 -0 -1 -2 -2 -0 -1 -1 -1 -0 -0 -1 -1 0 -1 -1 -1 -0 -0 -1 -0 1 -2 -2 33 4 -1 15 -1 -6 3 1 -2 -2 1 -1 -3 -2 -1 1 0 -1 -1
-0 -0 -1 -1 -1 -1 -2 -2 -1 -2 -2 -2 -0 -1 -1 0 -1 -1 -1 -1 -1 -1 -1 1 -3 5 6 4 -2 -2 -7 20 -8 -6 -3 -4 1 -6 -3 -2 -3 -2 2 2 -0
-1 0 0 -0 0 -1 -2 -1 -1 -3 -1 0 -0 1 -2 -1 0 -1 -1 -2 -2 -3 -1 -3 -9 3 -3 -1 -2 -3 -4 11 -7 -6 -1 -5 6 3 -0 0 -2 -3 -4 1 2
-1 -1 -1 -0 -0 -0 -1 -1 0 1 -1 -1 -1 -1 1 -1 0 1 -1 -1 -0 -0 -1 -4 -6 18 -2 -6 0 14 -3 2 -0 -1 0 8 -1 8 1 3 -1 -1 -1 -3 -1
-1 -1 -1 -0 1 -1 0 1 1 0 -0 -1 -1 1 1 -0 1 1 1 -1 -2 0 1 -1 6 1 -6 -2 -2 -5 -3 1 -2 -2 -2 -4 -46 -28 -10 3 1 0 2 1 -1
-1 -0 -1 -0 -1 0 0 -0 1 1 5 -6 -0 2 -3 -0 -4 3 -1 -0 -1 -0 0 6 -7 -5 -3 -0 -4 24 -5 3 -6 -7 -1 33 24 -17 11 12 -2 -3 -3 -2 1
-0 1 -1 -0 -1 0 -0 1 -0 1 3 -2 -1 0 -0 1 -0 1 -0 -0 -0 -1 -1 -1 -4 -2 5 6 -3 -5 -2 -11 -13 -9 -6 -6 6 4 44 25 -6 -2 -2 -2 -2
-0 -0 -1 -1 -1 -0 1 -1 0 1 -4 -4 -1 -0 -0 0 -1 -0 -0 -1 -1 -2 -0 0 -1 -1 -2 -4 -3 -4 -11 4 18 -3 0 -23 19 -10 -9 -3 2 -2 -1 2 1
-1 1 1 0 -2 -1 0 -1 0 3 3 -2 -0 -0 0 -0 0 -0 -1 -0 -0 -2 2 5 -3 -5 -3 -5 -3 -3 12 22 -22 67 -8 -26 22 12 2 -1 -1 -2 -3 2 -1
1 2 1 2 1 -0 -0 -2 1 3 -0 1 1 0 -1 -1 1 -1 -1 -0 1 1 -3 7 -11 -1 7 5 -6 -3 -18 -8 -0 -1 2 76 -3 -1 -9 -2 -1 -1 -1 -4 -0
0 2 1 1 1 -1 -2 4 1 -1 4 2 2 1 2 1 0 1 -1 0 1 -1 -1 1 -4 -2 3 -1 -4 -9 12 4 -25 -7 4 -45 50 -6 -12 -2 4 -6 -6 -2 -4
2 -1 5 3 -0 -3 -0 5 1 2 2 -1 5 1 2 10 2 -1 3 0 -1 -0 2 3 1 13 -3 -5 2 -8 -7 -14 9 9 9 -4 110 4 -17 0 1 0 2 -1 1
5 -7 -0 -0 -3 3 -1 7 -2 -1 2 1 1 5 0 2 2 -1 1 7 -5 1 -0 2 6 -3 2 9 -7 -9 3 2 -2 -21 -4 54 -12 -41 -4 -0 2 -1 0 -2 0
-0 -4 -2 -2 0 3 5 2 -2 1 -0 3 2 -1 -4 1 1 -1 6 -7 1 2 1 3 2 1 0 15 -9 -4 -4 -5 9 6 13 9 -4 5 -1 0 2 -2 -8 -4 -1
2 1 -1 -1 1 1 4 5 -3 2 -2 -1 -1 -1 0 3 1 1 1 -10 1 -2 1 0 0 -0 23 5 45 -10 -5 -0 -5 15 -2 -3 -25 -12 -6 0 -1 -1 1 -4 -3
2 -8 8 2 1 2 -1 4 0 -0 -3 -5 1 2 3 1 2 -0 3 1 4 -3 -3 -1 -0 -1 -5 13 -0 -2 22 -7 -9 -11 -0 34 31 26 26 -8 -2 0 2 3 1
-0 1 2 -1 4 3 -1 4 3 3 -4 -1 1 2 2 -3 3 8 9 8 -2 -3 -3 -1 -3 -4 -6 -3 2 -6 -4 -9 1 1 -10 -9 28 12 8 -8 -4 0 1 2 5
1 0 2 0 2 2 1 3 4 -1 -5 7 -6 5 1 3 -11 -23 -5 -3 22 0 4 3 2 -3 -7 4 31 -7 -5 -1 3 -3 17 -4 22 -12 -9 -8 -6 -5 -3 -0 -1
Height
5910 5910 5910 5911 5912 5912 5913 5913 5913 5914 5913 5913 5914 5914 5915 5914 5914 5914 5915 5915 5915 5915 5914 5914 5914 5913 5914 5915 5918 5921 5923 5926 5927 5928 5929 5930 5931 5931 5930 5931 5932 5931 5931 5932 5932
5912 5912 5913 5913 5914 5914 5914 5914 5915 5916 5916 5916 5916 5917 5917 5917 5917 5917 5918 5918 5918 5917 5917 5916 5916 5917 5918 5920 5923 5924 5923 5928 5929 5929 5930 5931 5932 5933 5933 5933 5933 5933 5933 5933 5933
5913 5914 5915 5915 5915 5916 5916 5917 5917 5917 5918 5918 5918 5919 5919 5919 5919 5919 5920 5920 5920 5920 5919 5918 5919 5920 5922 5926 5927 5927 5929 5929 5930 5930 5931 5932 5934 5935 5935 5934 5934 5934 5935 5935 5935
5915 5915 5916 5917 5917 5917 5917 5918 5919 5919 5919 5920 5921 5921 5922 5922 5923 5922 5922 5922 5922 5922 5922 5921 5921 5923 5929 5930 5929 5930 5931 5931 5931 5932 5933 5934 5935 5934 5935 5935 5935 5935 5935 5936 5937
5917 5917 5917 5917 5918 5918 5918 5919 5920 5921 5921 5921 5922 5922 5923 5924 5924 5924 5924 5924 5924 5925 5924 5924 5924 5926 5929 5933 5933 5930 5932 5932 5933 5934 5934 5935 5936 5936 5936 5935 5935 5936 5937 5937 5937
5917 5918 5918 5918 5919 5920 5920 5919 5921 5921 5922 5922 5923 5923 5925 5926 5925 5926 5926 5927 5926 5927 5927 5927 5927 5929 5929 5932 5934 5933 5933 5934 5934 5935 5936 5936 5937 5938 5938 5937 5936 5937 5938 5938 5938
5917 5918 5918 5919 5919 5919 5921 5921 5920 5923 5923 5923 5924 5924 5925 5928 5927 5927 5928 5928 5929 5929 5929 5929 5930 5931 5933 5936 5935 5935 5936 5935 5936 5937 5938 5938 5939 5938 5938 5938 5937 5938 5939 5939 5940
5917 5918 5918 5918 5919 5920 5921 5922 5921 5923 5924 5924 5924 5925 5926 5926 5928 5928 5929 5931 5931 5931 5932 5932 5933 5933 5934 5936 5936 5938 5942 5938 5938 5939 5939 5939 5933 5938 5938 5939 5939 5939 5939 5940 5940
5916 5917 5918 5918 5918 5919 5921 5922 5922 5922 5924 5924 5925 5925 5927 5927 5928 5929 5930 5930 5931 5931 5932 5935 5935 5936 5939 5938 5937 5938 5936 5939 5939 5938 5938 5939 5936 5936 5937 5938 5939 5939 5939 5939 5940
5914 5915 5916 5918 5918 5919 5920 5921 5922 5923 5923 5924 5925 5927 5927 5928 5928 5929 5929 5930 5930 5931 5933 5936 5936 5938 5941 5939 5938 5940 5937 5940 5943 5938 5935 5937 5938 5936 5936 5936 5937 5939 5940 5939 5941
5911 5913 5914 5916 5917 5918 5919 5921 5923 5924 5923 5925 5925 5925 5926 5928 5928 5928 5929 5930 5929 5931 5932 5935 5937 5939 5940 5940 5939 5940 5942 5944 5939 5939 5935 5937 5939 5937 5934 5936 5937 5938 5939 5940 5940
5907 5909 5911 5913 5914 5916 5917 5918 5920 5922 5923 5923 5924 5925 5926 5926 5927 5928 5928 5929 5929 5930 5931 5934 5939 5940 5938 5938 5940 5942 5937 5938 5936 5933 5934 5934 5935 5939 5936 5935 5936 5937 5938 5939 5941
5904 5905 5907 5909 5911 5912 5914 5916 5917 5919 5921 5921 5922 5923 5925 5925 5925 5927 5928 5928 5928 5929 5931 5935 5935 5934 5938 5939 5941 5940 5937 5935 5934 5932 5935 5936 5934 5939 5937 5935 5935 5936 5937 5938 5939
5900 5902 5903 5905 5908 5909 5911 5912 5914 5916 5918 5919 5919 5921 5922 5922 5923 5925 5925 5927 5926 5928 5930 5935 5938 5936 5936 5939 5939 5936 5935 5936 5932 5934 5930 5929 5919 5926 5937 5935 5935 5935 5935 5937 5938
5896 5898 5899 5901 5903 5905 5907 5908 5911 5913 5916 5913 5915 5918 5918 5920 5920 5923 5923 5923 5925 5926 5927 5935 5933 5933 5934 5936 5935 5937 5933 5934 5933 5930 5931 5931 5938 5931 5936 5936 5933 5933 5933 5934 5936
5892 5894 5895 5897 5899 5901 5903 5905 5907 5910 5910 5910 5912 5913 5914 5915 5917 5918 5919 5920 5922 5923 5923 5927 5929 5929 5933 5931 5931 5931 5933 5934 5933 5934 5929 5925 5932 5921 5914 5936 5931 5931 5931 5932 5933
5889 5890 5892 5893 5895 5897 5899 5901 5904 5905 5906 5907 5908 5910 5911 5912 5913 5914 5916 5917 5918 5920 5921 5923 5923 5924 5924 5927 5930 5931 5934 5939 5938 5933 5924 5929 5931 5928 5932 5933 5932 5930 5929 5930 5931
5884 5886 5888 5890 5891 5893 5895 5897 5899 5902 5904 5904 5905 5907 5908 5909 5910 5911 5912 5913 5915 5916 5922 5925 5927 5924 5923 5924 5928 5923 5935 5936 5935 5939 5929 5928 5935 5926 5931 5931 5930 5928 5927 5928 5929
5879 5881 5883 5885 5887 5889 5891 5893 5896 5898 5899 5902 5903 5904 5906 5907 5908 5909 5910 5911 5912 5914 5916 5922 5923 5923 5924 5925 5924 5927 5929 5932 5933 5934 5935 5935 5929 5928 5930 5930 5930 5929 5928 5928 5929
5873 5876 5878 5880 5882 5884 5886 5890 5891 5893 5896 5897 5900 5902 5905 5905 5907 5907 5907 5908 5910 5911 5911 5915 5917 5918 5918 5917 5919 5920 5926 5930 5930 5932 5932 5928 5924 5919 5926 5929 5929 5928 5928 5928 5929
5866 5869 5872 5874 5876 5879 5882 5885 5886 5888 5890 5893 5895 5898 5901 5906 5903 5904 5905 5906 5906 5908 5908 5910 5914 5919 5914 5915 5920 5920 5920 5922 5927 5930 5930 5927 5901 5915 5923 5927 5929 5929 5929 5929 5930
5859 5861 5864 5867 5871 5873 5876 5878 5880 5882 5884 5887 5889 5892 5895 5898 5900 5900 5903 5905 5901 5904 5905 5907 5912 5914 5916 5918 5915 5917 5920 5923 5925 5926 5926 5922 5917 5915 5920 5924 5926 5927 5927 5928 5929
5850 5853 5856 5860 5864 5866 5869 5872 5873 5876 5879 5882 5884 5886 5887 5891 5894 5896 5901 5898 5898 5900 5902 5904 5906 5911 5915 5919 5913 5913 5915 5918 5924 5926 5923 5926 5916 5917 5919 5922 5922 5922 5923 5925 5926
5842 5845 5848 5852 5855 5859 5861 5864 5866 5869 5871 5874 5877 5879 5882 5886 5888 5891 5894 5892 5893 5895 5897 5899 5902 5907 5913 5915 5915 5911 5912 5916 5918 5923 5924 5923 5915 5913 5915 5917 5918 5919 5919 5919 5921
5833 5834 5841 5844 5846 5849 5852 5855 5858 5861 5863 5866 5869 5873 5876 5879 5882 5884 5887 5889 5889 5890 5892 5895 5897 5901 5905 5907 5908 5909 5913 5913 5912 5915 5917 5914 5901 5900 5906 5910 5912 5914 5916 5917 5917
5825 5828 5832 5834 5838 5841 5843 5847 5849 5852 5854 5857 5860 5863 5867 5870 5874 5881 5883 5886 5883 5884 5886 5889 5891 5893 5895 5898 5901 5901 5904 5906 5908 5910 5911 5913 5905 5893 5903 5903 5907 5909 5911 5912 5913
5817 5820 5823 5826 5829 5832 5835 5836 5839 5842 5843 5848 5849 5853 5855 5858 5861 5864 5868 5872 5879 5879 5880 5884 5887 5888 5888 5895 5898 5896 5896 5898 5901 5903 5906 5905 5904 5895 5896 5898 5900 5902 5904 5905 5906